Regional Weather Roundup
Issued by NWS

Home | Current Version | Previous Version | Graphics & Text | Print | Product List | Glossary On
Versions: 1 2 3 4 5 6 7 8 9 10 11 12 13 14 15 16 17 18 19 20 21 22 23 24 25 26 27 28 29 30 31 32 33 34 35 36 37 38 39 40 41 42 43 44 45 46 47 48 49 50
695
ASUS45 KABQ 110510
RWRNM
NEW MEXICO REGIONAL WEATHER ROUNDUP
NATIONAL WEATHER SERVICE ALBUQUERQUE NM
1000 PM MST SUN DEC 10 2017

NOTE: "FAIR" MEANS FEW OR NO CLOUDS BELOW 12,000 FEET AGL WITH NO
       SIGNIFICANT WEATHER OR OBSTRUCTIONS TO VISION.

      THIS PRODUCT IS RELEASED AS TWO VERSIONS.  ONE VERSION NEAR
      THE TOP OF THE HOUR CONTAINING PRELIMINARY DATA FROM ALBUQUERQUE
      AND OTHER STATIONS.  A FINAL VERSION WITH ADDITIONAL DATA IS
      ISSUED ABOUT 10 MINUTES AFTER THE HOUR.

NMZ501-503-504-510>518-110600-
NORTHWEST PLATEAU/NORTHCENTRAL MOUNTAINS

CITY           SKY/WX    TMP DP  RH WIND       PRES   REMARKS
FARMINGTON     FAIR      19  -1  41 CALM      30.49S
LOS ALAMOS     FAIR      41  -1  16 CALM      30.48S
SANTA FE       FAIR      20   5  52 N7        30.46R WCI  11
TAOS           FAIR      15  -2  46 N8        30.52R WCI   4
ANGEL FIRE     FAIR       9   3  77 CALM      30.52S

$$
NMZ402-403-502-505>509-110600-
WESTCENTRAL MOUNTAINS/SOUTHWEST MOUNTAINS

CITY           SKY/WX    TMP DP  RH WIND       PRES   REMARKS
GALLUP         FAIR      16 -10  31 NE3       30.50R
GRANTS         FAIR      22  -8  25 NW8       30.52R WCI  13
SILVER CITY    FAIR      27   4  37 NW6       30.46R WCI  20

$$
NMZ407-409-411-412-110600-
SOUTHERN DESERTS

CITY           SKY/WX    TMP DP  RH WIND       PRES   REMARKS
DEMING         FAIR      36  11  35 NE7       30.44R WCI  30
LAS CRUCES     FAIR      32  15  50 W3        30.46R
HOLLOMAN AFB   FAIR      31  10  41 CALM      30.46R
ALAMOGORDO     FAIR      36  10  35 NE6       30.44S WCI  31
T OR C         FAIR      36   4  26 NW9       30.45R WCI  29

$$
NMZ519>523-110600-
CENTRAL VALLEYS/CENTRAL HIGHLANDS

CITY           SKY/WX    TMP DP  RH WIND       PRES   REMARKS
ALBUQUERQUE    FAIR      36   4  26 N5        30.46S WCI  32
DOUBLE EAGLE   CLEAR     27   1  33 W5        30.47S WCI  21
MORIARTY ARPT  FAIR      18  -4  36 N6        30.47S WCI  10
CLINES CORNERS FAIR      29  -1  27 NW12      30.46S WCI  19
BELEN          FAIR      28   3  33 CALM      30.47R
SOCORRO        FAIR      33   4  29 CALM      30.47R

$$
NMZ524>526-539-540-110600-
SOUTHCENTRAL MOUNTAINS

CITY           SKY/WX    TMP DP  RH WIND       PRES   REMARKS
RUIDOSO        FAIR      36   1  23 W8        30.50R WCI  29

$$
NMZ527>531-110600-
NORTHEAST HIGHLANDS/NORTHEAST PLAINS

CITY           SKY/WX    TMP DP  RH WIND       PRES   REMARKS
LAS VEGAS      FAIR      26   4  38 E6        30.42S WCI  19
RATON          FAIR      21   0  39 NE8       30.40F WCI  11
CLAYTON        FAIR      38   4  24 W13       30.35S WCI  30

$$
NMZ532>537-110600-
EASTCENTRAL PLAINS

CITY           SKY/WX    TMP DP  RH WIND       PRES   REMARKS
SANTA ROSA     FAIR      33   5  30 SW7       30.38S WCI  27
TUCUMCARI      FAIR      37   7  28 SW5       30.34F WCI  33
CANNON AFB     FAIR      35   9  33 NW5       30.39S WCI  31
CLOVIS AIRPORT FAIR      31  13  47 W7        30.38S WCI  24

$$
NMZ028-029-538-110600-
SOUTHEAST PLAINS

CITY           SKY/WX    TMP DP  RH WIND       PRES   REMARKS
ROSWELL        FAIR      33  11  39 NW3       30.39R
ARTESIA        FAIR      37  16  41 S7        30.40S WCI  32
CARLSBAD       FAIR      39  25  57 NW6       30.38S WCI  35
HOBBS          FAIR      32  18  55 W8        30.41R WCI  25


$$




USA.gov is the U.S. government's official web portal to all federal, state and local government web resources and services.